Weather History for Kirksville, MO

Change the Weather History Date:

Monday, December 30, 2013

  Actual Average Record
Temperature  
Mean Temperature 16 °F 26 °F  
Max Temperature 27 °F 35 °F 66 °F (1965)
Min Temperature 4 °F 18 °F -6 °F (1983)
Degree Days  
Heating Degree Days 49 39  
Month to date heating degree days 1185 1084  
Since 1 July heating degree days 2452 2305  
Cooling Degree Days 0 0  
Month to date cooling degree days 0 0  
Year to date cooling degree days 1028 939  
Moisture  
Dew Point 3 °F    
Average Humidity 59    
Maximum Humidity 72    
Minimum Humidity 45    
Precipitation  
Precipitation 0.00 in 0.04 in 0.81 in (1971)
Month to date precipitation 1.31 1.71  
Year to date precipitation 38.22 39.27  
Sea Level Pressure  
Sea Level Pressure 30.29 in    
Wind  
Wind Speed 6 mph (SW)    
Max Wind Speed 15 mph    
Max Gust Speed 19 mph    
Visibility 10 miles    
Events      
T = Trace of Precipitation, MM = Missing Value Source: NWS Daily Summary

Daily Weather History Graph

Daily Weather History Graph

Search for Another Location

Airport:

Trip Planner

Search our weather history database for the weather conditions in past years. The results will help you decide how hot, cold, wet, or windy it might be!

Date:

Astronomy

Dec. 30, 2013 Rise Set
Actual Time 7:32 AM CST 4:53 PM CST
Civil Twilight 7:01 AM CST 5:24 PM CST
Nautical Twilight 6:27 AM CST 5:58 PM CST
Astronomical Twilight 5:54 AM CST 6:31 PM CST
Moon 5:22 AM CST (12/30) 3:27 PM CST (12/30)
Length of Visible Light 10h 22m
Length of Day
9h 21m
Waning Crescent, 4% of the Moon is Illuminated
Dec 30
Waning Crescent
Jan 1
New
Jan 7
First Quarter
Jan 15
Full
Jan 23
Last Quarter

Hourly Weather History & Observations

Time (CST) Temp. Windchill Dew Point Humidity Pressure Visibility Wind Dir Wind Speed Gust Speed Precip Events Conditions
12:55 AM 6.1 °F -4.3 °F -4.0 °F 63% 30.36 in 10.0 mi North 5.8 mph - N/A   Clear
1:55 AM 5.0 °F -5.6 °F -4.0 °F 66% 30.36 in 10.0 mi North 5.8 mph - N/A   Clear
2:55 AM 3.9 °F -8.2 °F -5.1 °F 66% 30.37 in 10.0 mi North 6.9 mph - N/A   Clear
3:55 AM 3.9 °F -5.3 °F -4.0 °F 70% 30.36 in 10.0 mi NNE 4.6 mph - N/A   Clear
4:55 AM 3.9 °F -5.3 °F -5.1 °F 66% 30.37 in 10.0 mi ENE 4.6 mph - N/A   Clear
5:55 AM 3.9 °F -3.4 °F -6.0 °F 64% 30.38 in 10.0 mi NNE 3.5 mph - N/A   Clear
6:55 AM 5.0 °F - -5.1 °F 63% 30.38 in 10.0 mi Calm Calm - N/A   Clear
7:55 AM 5.0 °F -2.1 °F -6.0 °F 61% 30.38 in 10.0 mi SSE 3.5 mph - N/A   Clear
8:55 AM 7.0 °F -3.3 °F -2.9 °F 64% 30.36 in 10.0 mi SSE 5.8 mph - N/A   Mostly Cloudy
9:55 AM 9.0 °F -4.2 °F -0.9 °F 64% 30.35 in 10.0 mi SSE 9.2 mph - N/A   Overcast
10:55 AM 10.9 °F -0.8 °F -2.9 °F 54% 30.35 in 10.0 mi South 8.1 mph - N/A   Clear
11:55 AM 14.0 °F 3.9 °F -2.0 °F 49% 30.30 in 10.0 mi SE 6.9 mph - N/A   Clear
12:55 PM 18.0 °F 9.8 °F -0.0 °F 45% 30.28 in 10.0 mi SSW 5.8 mph - N/A   Overcast
1:55 PM 19.9 °F 10.1 °F 1.0 °F 44% 30.25 in 10.0 mi SSW 8.1 mph - N/A   Overcast
2:55 PM 21.0 °F 9.9 °F 3.9 °F 48% 30.22 in 10.0 mi South 10.4 mph - N/A   Overcast
3:55 PM 21.0 °F 9.9 °F 5.0 °F 50% 30.21 in 10.0 mi South 10.4 mph - N/A   Overcast
4:55 PM 21.0 °F 11.4 °F 6.1 °F 53% 30.23 in 10.0 mi SW 8.1 mph - N/A   Overcast
5:55 PM 21.0 °F 13.4 °F 7.0 °F 55% 30.23 in 10.0 mi SW 5.8 mph - N/A   Overcast
6:55 PM 21.0 °F 12.4 °F 10.0 °F 63% 30.23 in 10.0 mi SW 6.9 mph - 0.00 in   Overcast
7:55 PM 21.0 °F 16.2 °F 10.9 °F 65% 30.23 in 10.0 mi SW 3.5 mph - N/A   Overcast
8:14 PM 21.9 °F 14.5 °F 10.9 °F 63% 30.17 in 10.0 mi SW 5.8 mph - N/A   Overcast
8:33 PM 23.0 °F 15.8 °F 10.9 °F 60% 30.18 in 10.0 mi WSW 5.8 mph - N/A   Overcast
8:55 PM 23.0 °F 15.8 °F 10.0 °F 58% 30.25 in 10.0 mi WSW 5.8 mph - N/A   Overcast
9:55 PM 25.0 °F 18.1 °F 10.0 °F 53% 30.25 in 10.0 mi West 5.8 mph - N/A   Overcast
10:55 PM 27.0 °F 18.7 °F 12.0 °F 53% 30.26 in 10.0 mi West 8.1 mph - N/A   Overcast
11:31 PM 27.0 °F 17.3 °F 12.9 °F 56% 30.21 in 10.0 mi West 10.4 mph - N/A   Overcast
11:55 PM 26.1 °F 16.8 °F 14.0 °F 60% 30.28 in 10.0 mi NW 9.2 mph - N/A   Mostly Cloudy